Flag for Germany Weather past 2 weeks in Neubrandenburg, Mecklenburg-Western Pomerania, Germany

Now
66 °F

Passing clouds.


Feels Like: 66 °F
Forecast: 53 / 74 °F
Wind: 5 mph from Northeast

Location: Greifswald

Current Time: Sep 17, 2014 at 6:09:42 PM

Latest Report: Sep 17, 2014 at 6:00 PM


Visibility: 13 mi

Pressure: 30.09 "Hg

Humidity: 69%

Dew point: 56 °F

Location of NeubrandenburgLocation

Historic Weather in Neubrandenburg — Graph

°F

Neubrandenburg temperature yesterday

Maximum temperature yesterday: 71 °F (at 3:00 PM)
Minimum temperature yesterday: 56 °F (at 6:00 AM)
Average temperature yesterday: 63 °F

Past Weeks' High & Low Weather Summary

 TemperatureHumidityPressure
High76 °F (Sep 6, 3:00 PM)100% (Sep 4, 8:00 AM)30.38 "Hg (Sep 4, 8:00 AM)
Low48 °F (Sep 11, 7:00 AM)47% (Sep 6, 2:00 PM)29.91 "Hg (Sep 7, 6:00 AM)
Average61 °F85%30.12 "Hg
* Reported Sep 2 4:00 PM — Sep 17 4:00 PM, Neubrandenburg, Weather by CustomWeather, © 2014

Note: Actual official high and low records may vary slightly from our data, if they occured in-between our weather recording intervals... More about our weather records

Advertising

Neubrandenburg weather history for previous 24 hours

 ConditionsComfort  
Time TempWeatherWind HumidityBarometerVisibility
4:00 PM
Sep 17
67 °FPassing clouds.7 mph75%30.10 "Hg12 mi
3:00 PM67 °FPassing clouds.7 mph68%30.10 "Hg16 mi
2:00 PM66 °FPassing clouds.7 mph67%30.12 "Hg14 mi
1:00 PM66 °FPassing clouds.8 mph62%30.13 "Hg12 mi
12:00 PM66 °FPassing clouds.8 mph61%30.14 "Hg12 mi
10:00 AM62 °FPassing clouds.6 mph72%30.16 "Hg11 mi
9:00 AM59 °FPassing clouds.5 mph77%30.15 "Hg11 mi
8:00 AM53 °FPassing clouds.3 mph94%30.15 "Hg8 mi
7:00 AM52 °FPassing clouds.3 mph96%30.15 "Hg5 mi
6:00 AM52 °FFog.3 mph99%30.14 "Hg3 mi
4:00 AM53 °FFog.1 mph98%30.15 "Hg2 mi
3:00 AM54 °FFog.2 mph99%30.15 "Hg4 mi
2:00 AM55 °FClear.1 mph98%30.16 "Hg5 mi
1:00 AM56 °FClear.2 mph98%30.16 "Hg9 mi
12:00 AM57 °FClear.2 mph94%30.17 "Hg16 mi
11:00 PM
Sep 16
58 °FClear.3 mph90%30.17 "Hg19 mi
10:00 PM59 °FClear.5 mph85%30.17 "Hg22 mi
9:00 PM60 °FClear.6 mph81%30.17 "Hg25 mi
8:00 PM61 °FClear.6 mph77%30.16 "Hg25 mi
7:00 PM64 °FPassing clouds.6 mph70%30.16 "Hg28 mi
6:00 PM67 °FScattered clouds.6 mph65%30.16 "Hg28 mi
Weather by CustomWeather, © 2014

See weather overviewHow to use our weather pages